Flag Weather past 2 weeks in Rotterdam, Netherlands

Now
55 °F

Cool.


Feels Like: 53 °F
Forecast: 53 / 64 °F
Wind: 10 mph from South

Location: Rotterdam Zestienhoven Airport

Current Time: Oct 31, 2014 at 1:06:56 AM

Latest Report: Oct 31, 2014 at 12:25 AM


Visibility: 4 mi

Pressure: 30.15 "Hg

Humidity: 94%

Dew point: 54 °F

Location of RotterdamLocation

Historic Weather in Rotterdam — Graph

°F

Rotterdam temperature yesterday

Maximum temperature yesterday: 61 °F (at 2:25 PM)
Minimum temperature yesterday: 54 °F (at 12:25 AM)
Average temperature yesterday: 56 °F

Past Weeks' High & Low Weather Summary

 TemperatureHumidityPressure
High73 °F (Oct 18, 3:55 PM)100% (Oct 16, 4:55 AM)30.21 "Hg (Oct 16, 4:55 AM)
Low46 °F (Oct 22, 4:25 AM)62% (Oct 22, 8:55 AM)29.45 "Hg (Oct 21, 1:25 PM)
Average57 °F85%29.99 "Hg
* Reported Oct 16 12:25 AM — Oct 30 11:55 PM, Rotterdam, Weather by CustomWeather, © 2014

Note: Actual official high and low records may vary slightly from our data, if they occured in-between our weather recording intervals... More about our weather records

Advertising

Rotterdam weather history for previous 24 hours

 ConditionsComfort  
Time TempWeatherWind HumidityBarometerVisibility
11:55 PM
Oct 30
55 °FCool.8 mph94%30.15 "Hg4 mi
11:25 PM57 °FCool.8 mph94%30.15 "Hg4 mi
10:55 PM57 °FCool.10 mph94%30.15 "Hg4 mi
10:25 PM57 °FClear.12 mph94%30.15 "Hg4 mi
9:55 PM57 °FCool.9 mph94%30.15 "Hg4 mi
9:25 PM57 °FClear.9 mph94%30.15 "Hg4 mi
8:55 PM57 °FCool.8 mph94%30.15 "Hg4 mi
8:25 PM57 °FCool.9 mph94%30.15 "Hg4 mi
7:55 PM57 °FCool.9 mph94%30.15 "Hg4 mi
7:25 PM57 °FCool.8 mph94%30.15 "Hg4 mi
6:55 PM57 °FClear.7 mph94%30.15 "Hg5 mi
6:25 PM57 °FCool.5 mph94%30.15 "Hg5 mi
5:55 PM57 °FCool.7 mph94%30.15 "Hg5 mi
5:25 PM61 °FCool.9 mph83%30.12 "HgN/A
4:55 PM61 °FClear.9 mph83%30.12 "HgN/A
4:25 PM61 °FClear.8 mph88%30.12 "Hg5 mi
3:55 PM61 °FClear.10 mph88%30.12 "Hg5 mi
3:25 PM61 °FClear.10 mph88%30.12 "Hg5 mi
2:55 PM61 °FClear.10 mph88%30.12 "Hg4 mi
2:25 PM61 °FClear.10 mph88%30.12 "Hg4 mi
1:55 PM59 °FLight rain. Passing clouds.9 mph94%30.15 "Hg4 mi
1:25 PM59 °FFog.9 mph88%30.15 "Hg3 mi
12:55 PM59 °FFog.10 mph88%30.15 "Hg3 mi
12:25 PM59 °FFog.9 mph88%30.15 "Hg3 mi
11:55 AM57 °FFog.9 mph94%30.15 "Hg2 mi
11:25 AM57 °FFog.9 mph94%30.15 "Hg2 mi
10:55 AM55 °FFog.8 mph100%30.15 "Hg1 mi
10:25 AM55 °FLight rain. Broken clouds.9 mph100%30.15 "Hg1 mi
9:55 AM55 °FFog.10 mph94%30.15 "Hg1 mi
9:25 AM55 °FFog.8 mph94%30.15 "Hg1 mi
8:55 AM55 °FFog.8 mph94%30.15 "Hg1 mi
8:25 AM55 °FFog.7 mph94%30.15 "Hg1 mi
7:55 AM55 °FFog.7 mph94%30.15 "Hg2 mi
7:25 AM55 °FFog.6 mph94%30.12 "Hg2 mi
6:55 AM54 °FFog.6 mph100%30.12 "Hg2 mi
6:25 AM54 °FFog.6 mph100%30.12 "Hg2 mi
5:55 AM54 °FFog.5 mph100%30.12 "Hg2 mi
5:25 AM54 °FFog.5 mph100%30.12 "Hg2 mi
4:55 AM54 °FFog.5 mph100%30.12 "Hg2 mi
4:25 AM54 °FFog.5 mph100%30.12 "Hg2 mi
3:55 AM54 °FFog.3 mph100%30.12 "Hg1 mi
3:25 AM54 °FFog.5 mph100%30.12 "Hg1 mi
2:55 AM54 °FFog.5 mph100%30.12 "Hg1 mi
2:25 AM54 °FFog.6 mph100%30.12 "Hg1 mi
1:55 AM54 °FFog.5 mph100%30.12 "Hg1 mi
1:25 AM54 °FFog.5 mph94%30.12 "Hg1 mi
Weather by CustomWeather, © 2014

See weather overviewHow to use our weather pages